| time (UTC) | temp C | wind direction | speed KPH | gust KPH | rain 1hr cm | rain 24hr cm | rain mn cm | humidity % | barometer mb |
| 20260506174720 | 16 | 45 | 3.2 | 4.8 | 0.00 | 1.09 | 0.00 | 84 | 1008.2 |
| 20260506173720 | 16 | 135 | 3.2 | 3.2 | 0.00 | 1.12 | 0.00 | 83 | 1008.3 |
| 20260506172719 | 16 | 0 | 3.2 | 3.2 | 0.00 | 1.12 | 0.00 | 83 | 1008.1 |
| 20260506171720 | 16 | 180 | 3.2 | 3.2 | 0.00 | 1.12 | 0.00 | 83 | 1008.2 |
| 20260506170719 | 16 | 135 | 4.8 | 6.4 | 0.00 | 1.12 | 0.00 | 81 | 1008.0 |
| 20260506165718 | 16 | 135 | 4.8 | 6.4 | 0.00 | 1.17 | 0.00 | 80 | 1007.9 |
| 20260506164716 | 17 | 180 | 3.2 | 3.2 | 0.00 | 1.17 | 0.00 | 76 | 1008.1 |
| 20260506163716 | 17 | 135 | 3.2 | 3.2 | 0.00 | 1.17 | 0.00 | 74 | 1008.1 |
| 20260506162716 | 17 | 135 | 3.2 | 3.2 | 0.00 | 1.17 | 0.00 | 74 | 1008.2 |
| 20260506161715 | 17 | 180 | 0.0 | 0.0 | 0.03 | 1.17 | 0.00 | 73 | 1008.1 |
| 20260506160714 | 17 | 315 | 4.8 | 6.4 | 0.03 | 1.22 | 0.00 | 74 | 1008.0 |
| 20260506155715 | 17 | 315 | 6.4 | 6.4 | 0.05 | 1.24 | 0.00 | 79 | 1007.9 |
| 20260506154713 | 16 | 315 | 3.2 | 3.2 | 0.05 | 1.24 | 0.00 | 82 | 1007.9 |
| 20260506153714 | 16 | 270 | 3.2 | 4.8 | 0.08 | 1.27 | 0.00 | 85 | 1008.0 |
| 20260506152712 | 16 | 0 | 9.7 | 11.3 | 0.13 | 1.37 | 0.00 | 90 | 1008.1 |
| 20260506151712 | 16 | 270 | 4.8 | 6.4 | 0.18 | 1.35 | 0.00 | 91 | 1008.1 |
| 20260506150710 | 16 | 270 | 6.4 | 8.0 | 0.20 | 1.35 | 0.00 | 91 | 1008.3 |
| 20260506145712 | 16 | 315 | 6.4 | 8.0 | 0.20 | 1.30 | 0.00 | 90 | 1008.4 |
| 20260506144709 | 16 | 315 | 3.2 | 3.2 | 0.18 | 1.27 | 0.00 | 88 | 1008.2 |
| 20260506143709 | 16 | 270 | 1.6 | 3.2 | 0.13 | 1.27 | 0.00 | 87 | 1008.3 |
| 20260506142709 | 16 | 90 | 1.6 | 3.2 | 0.08 | 1.22 | 0.00 | 86 | 1008.3 |
| 20260506141708 | 16 | 90 | 4.8 | 6.4 | 0.03 | 1.17 | 0.00 | 85 | 1008.3 |
| 20260506140707 | 16 | 135 | 12.9 | 14.5 | 0.00 | 1.12 | 0.00 | 83 | 1008.4 |
| 20260506135706 | 17 | 90 | 6.4 | 9.7 | 0.00 | 1.12 | 0.00 | 81 | 1008.3 |
| 20260506134706 | 17 | 0 | 4.8 | 6.4 | 0.00 | 1.12 | 0.00 | 76 | 1008.4 |
| 20260506133706 | 17 | 45 | 3.2 | 4.8 | 0.00 | 1.12 | 0.00 | 76 | 1008.4 |
| 20260506132706 | 17 | 180 | 1.6 | 3.2 | 0.00 | 1.17 | 0.00 | 78 | 1008.5 |
| 20260506131706 | 17 | 0 | 3.2 | 4.8 | 0.00 | 1.17 | 0.00 | 81 | 1008.6 |
| 20260506130706 | 17 | 45 | 6.4 | 8.0 | 0.00 | 1.17 | 0.00 | 83 | 1008.8 |
| 20260506125706 | 16 | 315 | 6.4 | 8.0 | 0.03 | 1.17 | 0.00 | 88 | 1008.9 |
| 20260506124706 | 16 | 315 | 6.4 | 8.0 | 0.05 | 1.17 | 0.00 | 90 | 1009.1 |
| 20260506123706 | 16 | 0 | 6.4 | 6.4 | 0.08 | 1.17 | 0.00 | 91 | 1009.0 |
| 20260506122706 | 15 | 315 | 6.4 | 8.0 | 0.10 | 1.17 | 0.00 | 91 | 1009.0 |
| 20260506121705 | 15 | 315 | 6.4 | 8.0 | 0.10 | 1.19 | 0.00 | 90 | 1008.9 |
| 20260506120707 | 15 | 0 | 6.4 | 8.0 | 0.10 | 1.17 | 0.00 | 90 | 1009.0 |
| 20260506115706 | 16 | 315 | 6.4 | 9.7 | 0.10 | 1.19 | 0.00 | 88 | 1009.1 |
| 20260506114705 | 16 | 315 | 8.0 | 9.7 | 0.10 | 1.19 | 0.00 | 88 | 1009.1 |
| 20260506113706 | 16 | 315 | 8.0 | 11.3 | 0.18 | 1.12 | 0.00 | 88 | 1009.0 |
| 20260506112707 | 16 | 270 | 3.2 | 3.2 | 0.36 | 1.12 | 0.00 | 88 | 1009.0 |
| 20260506111706 | 16 | 315 | 3.2 | 4.8 | 0.30 | 1.09 | 0.00 | 89 | 1008.9 |
| 20260506110706 | 16 | 270 | 6.4 | 6.4 | 0.30 | 1.09 | 0.00 | 91 | 1009.1 |